Preview of NWS' New Version of Forecast
This preview is not operational and should not be used for support decisions.

Regional Weather Roundup (RWR)

Issued by National Weather Service (NWS)

                            
000
ASCA42 TJSJ 230310
RWRPR 
PUERTO RICO/U.S. VIRGIN ISLANDS HOURLY WEATHER ROUNDUP
NATIONAL WEATHER SERVICE SAN JUAN PR
1100 PM AST MON JUL 22 2019

PRZ001>002-007>008-010-230400-
PUERTO RICO
  
CITY           SKY/WX    TMP DP  RH WIND       PRES   REMARKS
SAN JUAN LMM   PTCLDY    82  73  74 E7        30.07R                  
CEIBA          PTCLDY    82  75  78 E8        30.08S                  
$$

VIZ001>002-230400-
U.S. VIRGIN ISLANDS
  
CITY           SKY/WX    TMP DP  RH WIND       PRES   REMARKS
CHARLOTTE AMA  CLEAR     82  75  78 E10       30.06S                  
CHRISTIANSTED  PTCLDY    81  75  83 E9        30.07R                  
$$

HOURLY WEATHER ROUNDUP FOR THE NEWS MEDIA
  
CITY           SKY/WX    TMP DP  RH WIND       PRES   REMARKS
ORLANDO        FAIR      79  72  79 W5        30.01S                  
NEW YORK       MOCLDY    75  75 100 SW7       29.77                   
NEWARK         CLOUDY    75  72  90 SW5       29.76S                  
CHICAGO        FAIR      65  49  56 N7        30.09S                  
HARTFORD       CLOUDY    71  68  90 NE6       29.77R                  
BOSTON         RAIN      69  66  90 NE18      29.78  FOG              
DALLAS         PTCLDY    84  68  58 N14G21    30.03R                  
PHILADELPHIA   LGT RAIN  77  73  87 W6        29.78                   
LOS ANGELES    PTCLDY    68  62  81 W9        29.96R                  
WASHINGTON DC  CLOUDY    77  68  73 N12       29.81R